[[{"header":{"parameterUnit":"m.s-1","parameterCategory":1,"la1":30.2991,"la2":30.254,"lo1":-89.0895,"lo2":-89.0444,"dy":0.0017,"dx":0.0017,"nx":28,"ny":28,"refTime":"2025-06-03T21:00:00:Z","depth":0,"parameterNumber":2,"parameterNumberName":"U-component_of_WINDS"},"data":[0,0,0,0,0,0,0,0,0,0,0,0,0,0,0,0,0,0,0,0,0,0,0,0,0,0,0,0,0,0,0,0,0,0,0,0,0,0,0,0,0,0,0,0,0,0,0,0,0,0,0,0,0,0,0,0,0,0,-0.0784,-0.0783,0,-0.0696,-0.0695,-0.0694,-0.0642,-0.0641,-0.0641,-0.0641,-0.0549,-0.0547,-0.0544,0,0,0,0,0,0,0,0,0,0,0,0,0,-0.0904,-0.0903,-0.0784,-0.0783,-0.0782,-0.0697,-0.0695,-0.0694,-0.0642,-0.0641,-0.0641,-0.0641,-0.0549,-0.0547,-0.0544,0,0,0,0,0,0,0,0,0,0,0,0,0,-0.0838,-0.0902,-0.0785,-0.0746,-0.0741,-0.0697,-0.0695,-0.0694,-0.0642,-0.0641,-0.0641,-0.0641,-0.055,-0.0547,-0.0544,-0.053,0,0,-0.0534,-0.0532,0,0,0,0,0,0,0,0,-0.0842,-0.0834,-0.0752,-0.0748,-0.0743,-0.068,-0.0704,-0.0639,-0.0642,-0.0679,-0.0641,-0.064,-0.0592,-0.0586,-0.057,-0.0526,-0.0522,-0.0533,-0.0531,-0.053,-0.0529,0,0,0,0,0,0,0,-0.0847,-0.0837,-0.0749,-0.0751,-0.0746,-0.0732,-0.0722,-0.0691,-0.0639,-0.0676,-0.0672,-0.0663,-0.059,-0.0573,-0.0567,-0.0521,-0.0533,-0.053,-0.0528,-0.0527,-0.0462,-0.0462,0,0,0,0,0,0,-0.0858,-0.0841,-0.0752,-0.0747,-0.0793,-0.073,-0.0719,-0.07,-0.0639,-0.063,-0.0663,-0.066,-0.0579,-0.0571,-0.0564,-0.0544,-0.053,-0.0527,-0.0525,-0.0462,-0.0462,-0.0462,0,0,0,0,0,0,-0.086,-0.085,-0.0756,-0.0793,-0.078,-0.0728,-0.0708,-0.0699,-0.0682,-0.0629,-0.0619,-0.0656,-0.0578,-0.0569,-0.0539,-0.054,-0.0525,-0.0522,-0.0461,-0.0462,-0.0462,-0.0505,0,0,0,0,0,0,-0.0864,-0.0851,-0.0846,-0.0793,-0.0778,-0.0734,-0.0708,-0.0697,-0.0677,-0.0673,-0.062,-0.0611,-0.0577,-0.0545,-0.0536,-0.0535,-0.052,-0.0461,-0.0462,-0.0462,-0.0504,-0.0507,-0.051,0,0,0,0,0,-0.0869,-0.0861,-0.0846,-0.0836,-0.0771,-0.0734,-0.0725,-0.0687,-0.0677,-0.0671,-0.0637,-0.0612,-0.0542,-0.0542,-0.0532,-0.053,-0.0461,-0.0461,-0.0462,-0.0502,-0.0506,-0.051,0,0,0,0,0,0,-0.0915,-0.0854,-0.0836,-0.0812,-0.0779,-0.0725,-0.0716,-0.0693,-0.0661,-0.0659,-0.0613,-0.0601,-0.0577,-0.055,-0.0552,-0.0514,-0.0498,-0.0497,-0.0532,-0.0536,-0.0539,-0.0546,-0.0517,0,0,0,0,0,-0.0923,-0.0898,-0.0846,-0.0829,-0.0814,-0.0768,-0.075,-0.0725,-0.0688,-0.0673,-0.0637,-0.0602,-0.0571,-0.0552,-0.0521,-0.05,-0.0487,-0.0494,-0.0497,-0.05,-0.0499,-0.0486,-0.0488,-0.0464,-0.0464,-0.0464,0,0,-0.0938,-0.0901,-0.0888,-0.0838,-0.0809,-0.0784,-0.0756,-0.0731,-0.0712,-0.0669,-0.0639,-0.0612,-0.0569,-0.0544,-0.0531,-0.0521,-0.0503,-0.0501,-0.0504,-0.0501,-0.0487,-0.0489,-0.0491,-0.0465,-0.0465,-0.0465,0,0,-0.0952,-0.0923,-0.0906,-0.0878,-0.0835,-0.0804,-0.0801,-0.075,-0.0731,-0.07,-0.0667,-0.0644,-0.0593,-0.0564,-0.0543,-0.0548,-0.0523,-0.0539,-0.0556,-0.0543,-0.0545,-0.0547,-0.0548,-0.0549,-0.0538,-0.0538,-0.0538,0,-0.0976,-0.0939,-0.09,-0.0877,-0.0856,-0.0816,-0.0798,-0.0773,-0.0722,-0.0707,-0.0698,-0.0633,-0.0602,-0.0569,-0.0571,-0.0555,-0.0548,-0.0544,-0.0548,-0.0549,-0.055,-0.0551,-0.0552,-0.054,-0.054,-0.054,-0.054,0,-0.097,-0.0944,-0.0936,-0.0889,-0.0866,-0.0846,-0.0804,-0.0786,-0.0762,-0.0733,-0.0703,-0.0664,-0.0624,-0.0615,-0.0591,-0.0579,-0.0574,-0.0557,-0.054,-0.0555,-0.0555,-0.0555,-0.0543,-0.0543,-0.0542,-0.0542,0,0,-0.1011,-0.0943,-0.0941,-0.0919,-0.0869,-0.0848,-0.0826,-0.0788,-0.0774,-0.074,-0.072,-0.0678,-0.0662,-0.0638,-0.0611,-0.06,-0.0606,-0.0584,-0.0582,-0.0589,-0.059,-0.0603,-0.0605,-0.059,-0.059,-0.059,-0.0594,0,-0.1018,-0.0978,-0.0943,-0.0915,-0.089,-0.0853,-0.0834,-0.0801,-0.0773,-0.0748,-0.0717,-0.0688,-0.0669,-0.0654,-0.0642,-0.0608,-0.0606,-0.0607,-0.0571,-0.057,-0.0582,-0.0605,-0.0618,-0.0624,-0.0594,-0.0594,-0.0594,0,-0.1021,-0.099,-0.096,-0.0913,-0.0901,-0.0885,-0.0848,-0.0825,-0.0786,-0.0767,-0.0741,-0.0712,-0.0687,-0.0673,-0.0637,-0.0639,-0.0622,-0.0603,-0.0602,-0.0597,-0.0582,-0.06,-0.0624,-0.0625,-0.0593,-0.0593,-0.0593,0,-0.1054,-0.1005,-0.098,-0.0963,-0.0907,-0.0896,-0.0873,-0.0834,-0.0814,-0.0781,-0.0768,-0.0733,-0.0713,-0.0686,-0.0649,-0.0642,-0.0617,-0.06,-0.06,-0.0601,-0.0596,-0.0596,-0.0618,-0.0585,-0.0585,-0.0585,-0.0585,0,-0.1066,-0.1049,-0.0994,-0.098,-0.0959,-0.0919,-0.09,-0.0873,-0.0839,-0.0818,-0.0783,-0.0763,-0.0715,-0.069,-0.0661,-0.0635,-0.0627,-0.061,-0.0602,-0.0613,-0.0615,-0.0601,-0.0599,-0.0586,-0.0585,-0.0585,-0.0585,0,-0.1099,-0.1062,-0.1033,-0.0983,-0.097,-0.0958,-0.0914,-0.0898,-0.0869,-0.0842,-0.0834,-0.0787,-0.0756,-0.0716,-0.0672,-0.0652,-0.063,-0.0618,-0.0643,-0.0639,-0.0641,-0.0641,-0.0653,-0.0653,-0.0622,-0.0622,-0.0622,0,-0.1109,-0.1095,-0.1044,-0.1028,-0.1005,-0.0979,-0.0959,-0.0919,-0.0899,-0.0855,-0.0844,-0.081,-0.078,-0.0732,-0.0694,-0.066,-0.0647,-0.0654,-0.0641,-0.0653,-0.0647,-0.0648,-0.0646,-0.0657,-0.0657,-0.0658,-0.0658,0,-0.113,-0.1113,-0.1085,-0.1051,-0.1028,-0.0999,-0.0969,-0.0957,-0.0911,-0.089,-0.0858,-0.0835,-0.0791,-0.0757,-0.0718,-0.0693,-0.0668,-0.0662,-0.066,-0.0671,-0.0686,-0.0678,-0.0651,-0.0662,-0.0661,-0.0661,-0.0661,-0.0661,-0.1152,-0.1138,-0.11,-0.1071,-0.1044,-0.1016,-0.0999,-0.0968,-0.0941,-0.0902,-0.0879,-0.0848,-0.081,-0.0755,-0.0731,-0.0705,-0.0696,-0.0693,-0.0692,-0.0692,-0.0696,-0.069,-0.0698,-0.0698,-0.0698,-0.0698,-0.0698,0,-0.1171,-0.1145,-0.1119,-0.1078,-0.1055,-0.1034,-0.0999,-0.0981,-0.0954,-0.0921,-0.0893,-0.0857,-0.0824,-0.0784,-0.0749,-0.0736,-0.0724,-0.0728,-0.0729,-0.0723,-0.0706,-0.0711,-0.0739,-0.0739,-0.0739,-0.0739,-0.0739,-0.0739,-0.1179,-0.1154,-0.1133,-0.1094,-0.1068,-0.1038,-0.102,-0.0994,-0.0968,-0.0929,-0.0902,-0.0876,-0.084,-0.0803,-0.0772,-0.0761,-0.0749,-0.0757,-0.0743,-0.0728,-0.0724,-0.0721,-0.0725,-0.0755,-0.0755,-0.0762,-0.0762,-0.0762]},{"header":{"parameterUnit":"m.s-1","parameterCategory":1,"la1":30.2991,"la2":30.254,"lo1":-89.0895,"lo2":-89.0444,"dy":0.0017,"dx":0.0017,"nx":28,"ny":28,"refTime":"2025-06-03T21:00:00:Z","depth":0,"parameterNumber":3,"parameterNumberName":"V-component_of_WINDS"},"data":[0,0,0,0,0,0,0,0,0,0,0,0,0,0,0,0,0,0,0,0,0,0,0,0,0,0,0,0,0,0,0,0,0,0,0,0,0,0,0,0,0,0,0,0,0,0,0,0,0,0,0,0,0,0,0,0,0,0,1.5488,1.5488,0,1.5446,1.5445,1.5445,1.5436,1.5436,1.5437,1.5437,1.539,1.5388,1.5387,0,0,0,0,0,0,0,0,0,0,0,0,0,1.556,1.5558,1.5488,1.5488,1.5487,1.5446,1.5445,1.5445,1.5436,1.5436,1.5437,1.5437,1.5391,1.5389,1.5387,0,0,0,0,0,0,0,0,0,0,0,0,0,1.5524,1.5558,1.5489,1.5478,1.5477,1.5446,1.5445,1.5444,1.5436,1.5436,1.5437,1.5437,1.5391,1.5389,1.5387,1.5362,0,0,1.5379,1.5378,0,0,0,0,0,0,0,0,1.5526,1.5521,1.548,1.5479,1.5477,1.5447,1.5453,1.5417,1.5436,1.5451,1.5437,1.5438,1.5408,1.5405,1.5395,1.536,1.5358,1.5379,1.5378,1.5377,1.5376,0,0,0,0,0,0,0,1.5529,1.5523,1.5471,1.548,1.5478,1.5475,1.547,1.5446,1.5427,1.545,1.5449,1.5444,1.5408,1.5398,1.5394,1.5357,1.5379,1.5377,1.5376,1.5375,1.53,1.5299,0,0,0,0,0,0,1.5533,1.5525,1.5473,1.547,1.5503,1.5473,1.5468,1.5456,1.5428,1.5424,1.5444,1.5444,1.5401,1.5397,1.5392,1.5362,1.5377,1.5375,1.5373,1.53,1.5299,1.5299,0,0,0,0,0,0,1.5535,1.5529,1.5475,1.5498,1.549,1.5471,1.5458,1.5455,1.5445,1.5423,1.542,1.5438,1.5402,1.5396,1.537,1.536,1.5374,1.5371,1.5301,1.53,1.5299,1.5301,0,0,0,0,0,0,1.5537,1.5529,1.552,1.5497,1.5489,1.5454,1.5457,1.5454,1.5441,1.5441,1.5416,1.5412,1.5402,1.5374,1.5368,1.5357,1.537,1.5302,1.53,1.5299,1.5301,1.53,1.5299,0,0,0,0,0,1.554,1.5522,1.552,1.5514,1.5478,1.5453,1.5448,1.5437,1.5441,1.5431,1.5417,1.5413,1.5362,1.5371,1.5364,1.5353,1.5302,1.5301,1.5299,1.5302,1.53,1.5299,0,0,0,0,0,0,1.5543,1.5519,1.5516,1.5491,1.5474,1.5452,1.5439,1.5435,1.5416,1.5417,1.5403,1.5397,1.5372,1.536,1.537,1.5328,1.5332,1.533,1.5337,1.5335,1.5333,1.5336,1.5368,0,0,0,0,0,1.5541,1.5524,1.5503,1.5483,1.5475,1.5458,1.5447,1.544,1.5422,1.5414,1.5398,1.538,1.536,1.5347,1.5327,1.53,1.5294,1.5289,1.5287,1.5286,1.5284,1.5269,1.5266,1.5294,1.5294,1.5294,0,0,1.5536,1.5521,1.5511,1.5483,1.5469,1.5451,1.5452,1.5433,1.5419,1.5411,1.5386,1.5374,1.5352,1.5325,1.5313,1.5315,1.5275,1.5285,1.5284,1.5282,1.5267,1.5264,1.5262,1.5293,1.5294,1.5294,0,0,1.5518,1.5505,1.5487,1.5473,1.5453,1.5442,1.5438,1.5416,1.5408,1.5383,1.5377,1.5359,1.5325,1.531,1.5298,1.5275,1.527,1.5268,1.5261,1.5246,1.5244,1.5242,1.5233,1.523,1.5266,1.5266,1.5266,0,1.5514,1.5488,1.5477,1.5458,1.5446,1.544,1.542,1.5407,1.5381,1.5372,1.5375,1.5332,1.5317,1.5287,1.5281,1.5272,1.5266,1.5271,1.5245,1.5243,1.5241,1.5233,1.5229,1.5266,1.5266,1.5266,1.5266,0,1.5484,1.5465,1.5453,1.5429,1.5415,1.5396,1.5382,1.5369,1.5364,1.5353,1.5327,1.5309,1.5286,1.5278,1.5272,1.5247,1.5248,1.5248,1.5252,1.5238,1.523,1.5227,1.5266,1.5266,1.5266,1.5266,0,0,1.5466,1.5437,1.5433,1.5422,1.5399,1.5384,1.5365,1.5343,1.5332,1.5314,1.5297,1.5268,1.5268,1.5255,1.5247,1.5234,1.5216,1.5235,1.5234,1.5232,1.5187,1.5187,1.5184,1.5214,1.5213,1.5212,1.5189,0,1.5445,1.5411,1.5401,1.5372,1.5354,1.5348,1.5331,1.5315,1.5304,1.5287,1.5275,1.5255,1.5256,1.5248,1.5235,1.5221,1.5207,1.5223,1.5196,1.5196,1.5201,1.5179,1.5179,1.5158,1.5186,1.5185,1.5185,0,1.5415,1.5398,1.5368,1.5347,1.534,1.5325,1.5304,1.5288,1.5269,1.5262,1.5247,1.5241,1.5219,1.5225,1.5195,1.5206,1.5195,1.5186,1.5185,1.5182,1.5189,1.5175,1.5151,1.5147,1.518,1.518,1.5181,0,1.5405,1.5374,1.5352,1.5343,1.5319,1.5308,1.5297,1.528,1.5267,1.5249,1.524,1.5219,1.5208,1.5191,1.5179,1.5185,1.515,1.5155,1.5143,1.5143,1.5135,1.5135,1.5108,1.5129,1.5129,1.5129,1.5129,0,1.5382,1.5363,1.5347,1.5333,1.5312,1.5301,1.528,1.5269,1.5253,1.5236,1.5229,1.5214,1.5199,1.5181,1.5171,1.5147,1.5142,1.5135,1.5133,1.5135,1.5136,1.5127,1.5128,1.5128,1.5128,1.5128,1.5129,0,1.5366,1.5354,1.533,1.531,1.5304,1.5289,1.5271,1.5257,1.5247,1.5226,1.522,1.5203,1.5182,1.5169,1.5141,1.5134,1.5108,1.5106,1.5115,1.5114,1.5102,1.5103,1.5068,1.5062,1.5087,1.5087,1.5086,0,1.5352,1.5337,1.5316,1.5305,1.5295,1.5277,1.5264,1.5253,1.524,1.5218,1.5207,1.5185,1.5167,1.5133,1.5118,1.5097,1.5094,1.5083,1.5091,1.5094,1.5093,1.5094,1.5093,1.5082,1.5081,1.5081,1.5081,0,1.5327,1.5323,1.5306,1.5287,1.5272,1.5257,1.5241,1.5232,1.5218,1.5204,1.5182,1.5169,1.5141,1.512,1.5097,1.5085,1.508,1.5079,1.5075,1.5077,1.5083,1.5079,1.5111,1.508,1.508,1.508,1.508,1.508,1.5312,1.5299,1.5282,1.5263,1.525,1.5236,1.5222,1.521,1.5192,1.517,1.5164,1.5142,1.5123,1.5093,1.5081,1.5063,1.5064,1.5058,1.5057,1.5055,1.5055,1.5087,1.5059,1.5059,1.5059,1.5059,1.5059,0,1.5287,1.5276,1.5259,1.5237,1.5223,1.5221,1.5203,1.5191,1.5172,1.5155,1.5138,1.5114,1.5093,1.5077,1.5055,1.5044,1.5041,1.5038,1.5039,1.5036,1.5055,1.5061,1.5041,1.5041,1.5041,1.5041,1.5041,1.5041,1.5272,1.525,1.5243,1.5215,1.5204,1.5182,1.5173,1.5159,1.5146,1.5119,1.5102,1.5092,1.5076,1.5053,1.5034,1.503,1.5022,1.5019,1.5014,1.5033,1.5034,1.5036,1.5041,1.5018,1.5018,1.4997,1.4996,1.4996]}]]